DW5338 Weather Reports


Display with metric or nautical units.
time (UTC)temp
F
wind
direction
speed
MPH
gust
MPH
rain 1hr
in
rain 24hr
in
rain mn
in
humidity
%
barometer
mb
20260831103022 58 225 4.0 9.0 0.00 0.02 0.00 54 1025.6
20260831102016 58 203 5.0 9.0 0.00 0.02 0.00 54 1025.5
20260831101022 58 225 5.0 11.0 0.00 0.02 0.00 54 1025.5
20260831100022 58 203 5.0 9.0 0.00 0.02 0.00 54 1025.1
20260831095020 57 203 6.0 11.0 0.00 0.02 0.00 54 1025.1
20260831094016 57 225 5.0 10.0 0.00 0.02 0.00 54 1025.3
20260831093022 57 225 3.0 6.0 0.00 0.02 0.00 54 1025.3
20260831092022 58 203 4.0 7.0 0.00 0.02 0.00 54 1025.3
20260831091016 58 203 5.0 8.0 0.00 0.02 0.00 54 1025.2
20260831090022 58 225 5.0 11.0 0.00 0.02 0.00 53 1025.1
20260831085022 58 203 5.0 13.0 0.00 0.02 0.00 52 1025.2
20260831084022 58 203 6.0 11.0 0.00 0.02 0.00 52 1024.8
20260831083056 58 180 5.0 10.0 0.00 0.02 0.00 53 1024.7
20260831082022 58 180 4.0 9.0 0.00 0.02 0.00 53 1024.7
20260831081022 58 203 5.0 8.0 0.00 0.02 0.00 53 1026.1
20260831080022 58 180 5.0 14.0 0.00 0.02 0.00 52 1026.2
20260831075042 59 180 4.0 9.0 0.00 0.02 0.00 52 1026.3
20260831074036 58 180 3.0 7.0 0.00 0.02 0.00 52 1026.3
20260831073042 58 203 4.0 9.0 0.00 0.02 0.00 52 1026.3
20260831072042 58 203 5.0 10.0 0.00 0.02 0.00 53 1026.5
20260831071042 58 225 5.0 8.0 0.00 0.02 0.00 54 1027.4
20260831070016 57 225 4.0 8.0 0.00 0.02 0.00 55 1027.5
20260831065016 58 225 3.0 8.0 0.00 0.02 0.00 55 1027.5
20260831064042 57 225 4.0 8.0 0.00 0.02 0.00 57 1027.2
20260831063022 55 203 5.0 9.0 0.00 0.02 0.00 62 1027.0
20260831062022 55 203 4.0 7.0 0.00 0.02 0.00 63 1027.0
20260831061022 55 203 4.0 6.0 0.00 0.02 0.00 64 1026.8
20260831060022 55 203 5.0 8.0 0.00 0.02 0.02 63 1026.9
20260831055022 55 225 6.0 11.0 0.00 0.02 0.02 62 1026.9
20260831054056 54 203 5.0 9.0 0.00 0.02 0.02 64 1026.8
20260831053021 54 225 5.0 10.0 0.00 0.02 0.02 64 1027.1
20260831052021 54 225 8.0 14.0 0.00 0.02 0.02 64 1027.0
20260831051021 55 225 8.0 18.0 0.00 0.02 0.02 65 1027.1
20260831050041 55 225 8.0 15.0 0.00 0.02 0.02 66 1027.3
20260831045016 56 248 6.0 13.0 0.00 0.02 0.02 63 1027.8
20260831044016 57 248 10.0 16.0 0.00 0.02 0.02 61 1028.0
20260831043016 58 248 9.0 22.0 0.00 0.02 0.02 59 1027.8
20260831042016 59 225 5.0 11.0 0.00 0.02 0.02 59 1028.0
20260831041021 59 225 7.0 15.0 0.00 0.02 0.02 58 1027.5
20260831040021 58 225 5.0 11.0 0.00 0.02 0.02 62 1027.0
20260831035016 58 225 4.0 7.0 0.00 0.02 0.02 63 1026.8
20260831034041 58 225 4.0 9.0 0.00 0.02 0.02 62 1026.6
20260831033016 58 225 3.0 7.0 0.00 0.02 0.02 62 1026.5
20260831032015 59 203 4.0 8.0 0.00 0.02 0.02 61 1026.4
20260831031021 59 225 4.0 8.0 0.00 0.02 0.02 60 1026.6
20260831030016 59 225 5.0 8.0 0.00 0.02 0.02 60 1026.4
20260831025015 59 203 4.0 8.0 0.00 0.02 0.02 61 1026.2
20260831024015 59 180 6.0 11.0 0.00 0.02 0.02 60 1026.0
20260831023019 59 203 5.0 8.0 0.00 0.02 0.02 60 1025.9
20260831022015 59 203 5.0 9.0 0.00 0.02 0.02 59 1025.9
20260831021015 59 180 4.0 7.0 0.00 0.02 0.02 59 1025.3
20260831020021 60 203 5.0 11.0 0.00 0.02 0.02 58 1025.5
20260831015015 60 180 3.0 6.0 0.00 0.02 0.02 57 1025.4
20260831014036 60 180 4.0 8.0 0.00 0.02 0.02 56 1025.6
20260831013015 61 180 4.0 9.0 0.00 0.02 0.02 55 1025.5
20260831012021 61 180 5.0 13.0 0.00 0.02 0.02 55 1025.5
20260831011021 61 180 4.0 12.0 0.00 0.02 0.02 54 1025.7
20260831010021 62 203 6.0 13.0 0.00 0.02 0.02 53 1025.8
20260831005021 62 225 4.0 10.0 0.00 0.02 0.02 53 1025.5
20260831004056 62 225 3.0 8.0 0.00 0.02 0.02 52 1025.6
20260831003021 63 225 3.0 8.0 0.00 0.02 0.02 52 1025.8
20260831002015 63 180 4.0 11.0 0.00 0.02 0.02 51 1025.9
20260831001041 63 203 6.0 14.0 0.00 0.02 0.02 51 1025.5
20260831000021 64 248 7.0 15.0 0.00 0.02 0.02 48 1025.6
20260830235021 65 225 9.0 18.0 0.00 0.02 0.02 48 1025.5
20260830234021 65 225 9.0 16.0 0.00 0.02 0.02 49 1025.5
20260830233021 64 248 9.0 18.0 0.00 0.02 0.02 51 1025.3
20260830232021 64 248 9.0 18.0 0.00 0.02 0.02 49 1025.2
20260830231021 64 225 12.0 24.0 0.00 0.02 0.02 49 1024.8
20260830230021 63 225 10.0 18.0 0.00 0.02 0.02 51 1024.9
20260830225016 63 225 12.0 21.0 0.00 0.02 0.02 50 1024.5
20260830224021 62 203 12.0 25.0 0.00 0.02 0.02 51 1024.3
20260830223101 62 225 11.0 23.0 0.00 0.02 0.02 51 1024.3
20260830222015 62 203 12.0 23.0 0.00 0.02 0.02 53 1024.1
20260830221021 61 225 11.0 21.0 0.00 0.02 0.02 54 1024.0
20260830220021 62 203 9.0 24.0 0.00 0.02 0.02 55 1024.4
20260830215015 60 225 12.0 24.0 0.00 0.02 0.02 58 1024.1
20260830214015 61 203 10.0 18.0 0.00 0.02 0.02 54 1024.7
20260830213021 62 248 10.0 22.0 0.00 0.02 0.02 53 1025.0
20260830212015 62 225 8.0 18.0 0.01 0.02 0.02 58 1025.6
20260830211016 61 225 8.0 19.0 0.02 0.02 0.02 60 1025.5
20260830210021 60 270 14.0 27.0 0.02 0.02 0.02 59 1025.5
20260830205015 60 270 16.0 32.0 0.02 0.03 0.02 60 1025.6
20260830204021 57 248 10.0 26.0 0.02 0.05 0.02 69 1025.3
20260830203015 54 248 6.0 13.0 0.02 0.05 0.02 83 1025.4
20260830202015 53 225 7.0 15.0 0.01 0.04 0.01 80 1025.4
20260830201015 54 270 11.0 21.0 0.00 0.03 0.00 74 1026.1
20260830200021 61 248 12.0 28.0 0.00 0.03 0.00 60 1026.2
20260830195041 63 270 15.0 27.0 0.00 0.03 0.00 55 1025.8
20260830194041 64 225 5.0 11.0 0.00 0.03 0.00 53 1025.2
20260830193035 64 225 6.0 14.0 0.00 0.03 0.00 54 1024.9
20260830192020 63 203 4.0 10.0 0.00 0.03 0.00 57 1025.0
20260830191055 62 270 7.0 17.0 0.00 0.03 0.00 59 1024.9
20260830190015 61 270 10.0 14.0 0.00 0.03 0.00 65 1024.9
20260830185015 67 293 15.0 40.0 0.00 0.03 0.00 50 1025.4
20260830184021 72 225 3.0 9.0 0.00 0.03 0.00 39 1025.4
20260830183015 71 225 3.0 8.0 0.00 0.03 0.00 41 1025.3
20260830182021 70 248 5.0 12.0 0.00 0.03 0.00 41 1025.4
20260830181015 70 225 8.0 20.0 0.00 0.03 0.00 40 1025.5
20260830180021 69 225 6.0 18.0 0.00 0.03 0.00 41 1025.6
20260830175021 69 225 6.0 14.0 0.00 0.03 0.00 43 1025.6
20260830174021 69 225 8.0 20.0 0.00 0.03 0.00 41 1025.5
20260830173040 68 203 4.0 15.0 0.00 0.03 0.00 45 1025.5
20260830172021 67 248 7.0 14.0 0.00 0.03 0.00 47 1025.5
20260830171015 66 270 5.0 9.0 0.00 0.03 0.00 49 1025.2
20260830170021 65 248 5.0 11.0 0.00 0.03 0.00 50 1025.2
20260830165021 64 248 5.0 11.0 0.00 0.03 0.00 52 1025.1
20260830164020 64 270 6.0 11.0 0.00 0.03 0.00 52 1025.2
20260830163015 64 225 5.0 12.0 0.00 0.03 0.00 53 1025.3
20260830162021 63 180 5.0 11.0 0.00 0.03 0.00 53 1025.2
20260830161020 63 248 4.0 8.0 0.00 0.03 0.00 53 1025.2
20260830160021 63 203 5.0 15.0 0.00 0.03 0.00 52 1025.1
20260830155020 62 203 4.0 9.0 0.00 0.03 0.00 55 1025.0
20260830154020 61 248 5.0 13.0 0.00 0.03 0.00 59 1025.0
20260830153020 59 225 6.0 13.0 0.00 0.03 0.00 59 1024.7
20260830152021 59 203 4.0 9.0 0.00 0.03 0.00 62 1024.7
20260830151020 58 180 4.0 8.0 0.00 0.03 0.00 63 1024.9
20260830150055 58 180 5.0 11.0 0.00 0.03 0.00 64 1025.1
20260830145015 59 225 8.0 17.0 0.00 0.03 0.00 63 1025.4
20260830144020 58 225 5.0 12.0 0.00 0.03 0.00 62 1025.3
20260830143015 58 203 3.0 6.0 0.00 0.03 0.00 63 1025.0
20260830142020 57 248 2.0 4.0 0.00 0.03 0.00 64 1024.4
20260830141015 57 270 2.0 6.0 0.00 0.03 0.00 66 1024.5
20260830140020 56 225 3.0 6.0 0.00 0.03 0.00 66 1024.5
20260830135020 56 180 4.0 8.0 0.00 0.03 0.00 66 1024.6
20260830134037 56 225 2.0 5.0 0.00 0.03 0.00 67 1024.9
20260830133022 56 248 2.0 5.0 0.00 0.03 0.00 66 1024.8
20260830132022 56 225 4.0 8.0 0.00 0.03 0.00 65 1024.6
20260830131022 56 203 5.0 12.0 0.00 0.03 0.00 64 1025.3
20260830130022 57 225 4.0 11.0 0.00 0.03 0.00 63 1025.2
20260830125022 57 203 5.0 12.0 0.00 0.03 0.00 63 1025.1
20260830124022 57 248 7.0 12.0 0.00 0.03 0.00 62 1025.7
20260830123016 57 225 5.0 11.0 0.00 0.03 0.00 62 1025.6
20260830122022 57 248 5.0 11.0 0.00 0.03 0.00 61 1025.4
20260830121102 57 270 7.0 11.0 0.00 0.03 0.00 61 1025.2
20260830120037 57 270 8.0 12.0 0.00 0.03 0.00 62 1025.1
20260830115022 57 270 8.0 14.0 0.00 0.03 0.00 62 1024.9
20260830114022 56 270 7.0 11.0 0.00 0.03 0.00 65 1024.6
20260830113017 55 270 5.0 8.0 0.00 0.03 0.00 65 1024.5
20260830112022 56 225 4.0 9.0 0.00 0.03 0.00 64 1024.4
20260830111020 56 225 5.0 8.0 0.00 0.03 0.00 63 1024.4
20260830110016 57 225 7.0 11.0 0.00 0.03 0.00 62 1024.3
20260830105022 57 225 7.0 13.0 0.00 0.03 0.00 62 1024.3
20260830104022 57 225 7.0 13.0 0.00 0.03 0.00 62 1024.3